Regional Weather Roundup
Issued by NWS

Home | Current Version | Previous Version | Text Only | Print | Product List | Glossary Off
Versions: 1 2 3 4 5 6 7 8 9 10 11 12 13 14 15 16 17 18 19 20 21 22 23 24 25 26 27 28 29 30 31 32 33 34 35 36 37 38 39 40 41 42 43 44 45 46 47 48 49 50

000
ASUS43 KLOT 020906
RWRIL

ILLINOIS REGIONAL WEATHER ROUNDUP
NATIONAL WEATHER SERVICE CHICAGO/ROMEOVILLE IL
300 AM CST MON MAR 02 2015

NOTE: "FAIR" INDICATES FEW OR NO CLOUDS BELOW 12,000 FEET WITH NO
SIGNIFICANT WEATHER AND/OR OBSTRUCTIONS TO VISIBILITY.

* THESE STATIONS ARE NOT UNDER NWS QUALITY CONTROL. THEY ALSO MAY NOT
  REPORT WEATHER SUCH AS PRECIPITATION OR FOG.

ILZ001-002-007-009-015-016-024-021000-
NORTHWEST ILLINOIS

CITY           SKY/WX    TMP DP  RH WIND       PRES   REMARKS
MOLINE         FAIR      11   7  84 W8        30.48R WCI  -1
STERLING*      PTCLDY    10   7  85 W6        30.45S WCI   1
SAVANNA*       PTCLDY    15  10  81 W3        30.45F
$$

ILZ003-004-008-010-011-017-018-021000-
NORTH CENTRAL ILLINOIS

CITY           SKY/WX    TMP DP  RH WIND       PRES   REMARKS
ROCKFORD       PTCLDY    13   6  74 W3        30.44R
FREEPORT*      PTCLDY    13   8  79 W5        30.43S WCI   5
ROCHELLE*      PTCLDY     6   3  89 W3        30.43F
DE KALB*       PTCLDY    15   8  76 W12       30.41S WCI   1
PERU*          PTCLDY    14   8  78 W7        30.46S WCI   4
$$

ILZ005-006-012>014-019>023-021000-
NORTHEAST ILLINOIS

CITY           SKY/WX    TMP DP  RH WIND       PRES   REMARKS
CHICAGO-OHARE  CLEAR     16   8  71 W12       30.41R WCI   3
CHICAGO-MIDWAY PTCLDY    19   9  65 W9        30.42R WCI   8
AURORA         PTCLDY    10   4  76 CALM      30.43S
LANSING*       CLEAR      7   4  88 SW3       30.43R
JOLIET*        PTCLDY     3   0  88 CALM      30.44S
WAUKEGAN       CLEAR     15   8  73 W6        30.39R WCI   6
DUPAGE AIRPORT CLEAR     13   6  74 W10       30.41R WCI   0
KANKAKEE*      PTCLDY     4   1  87 W9        30.46R WCI -11
WHEELING       CLEAR     16   7  67 W6        30.42R WCI   7
MORRIS*        PTCLDY    10   7  87 W9        30.44R WCI  -3
ROMEOVILLE*    PTCLDY    11   7  82 W5        30.43S WCI   3
NORTHERLY ISL    N/A     20  10  65 W9          N/A  WCI   9
$$

LMZ740>746-021000-
SOUTHERN LAKE MICHIGAN

STATION/POSITION SKY/WX   TEMP    WIND        PRES    VSBY  WAVE
                          AIR SEA DIR/SP/G                  HT/PER
                          (F)     (DEG/KT/KT) (MB)    (MI)  (FT/S)
WAUKEGAN HARBOR            18     280/ 10/ 18   N/A
HARRISON CRIB              20     270/ 17/ 20   N/A
BURNHAM HARBOR             20     280/  7/ 13   N/A
CALUMET HARBOR             18     250/  6/  8 1028.6F
MICHIGAN CITY              19     250/ 13/ 16   N/A
$$

ILZ025>027-034>036-040-047-049-050-058-095>099-021000-
WEST-CENTRAL ILLINOIS

CITY           SKY/WX    TMP DP  RH WIND       PRES   REMARKS
QUINCY         CLOUDY    22  17  81 CALM      30.49F
GALESBURG*     MOCLDY    16  13  87 SW5       30.47F WCI   9
MACOMB*        CLOUDY    17  14  90 W7        30.51S WCI   7
JACKSONVILLE*  CLOUDY    19  15  86 SW3       30.50F
PITTSFIELD*    MOCLDY    19  16  89 W5        30.51S WCI  12
$$

ILZ028>032-037-038-041>044-048-051>054-059>061-021000-
CENTRAL ILLINOIS

CITY           SKY/WX    TMP DP  RH WIND       PRES   REMARKS
PONTIAC        MOCLDY    10   7  85 W7        30.47S WCI   0
BLOOMINGTON    CLOUDY    19  14  81 W9        30.47S WCI   8
DECATUR        MOCLDY    21  16  81 W5        30.49R WCI  15
PEORIA         CLOUDY    21  13  71 W5        30.49S WCI  15
LACON*         MOCLDY    16   9  74 W5        30.47S WCI   8
LINCOLN*       CLOUDY    23  18  80 W5        30.51S WCI  17
SPRINGFIELD    CLOUDY    17  13  84 W7        30.51R WCI   8
TAYLORVILLE    MOCLDY    18  14  86 NW6       30.50S WCI   9
$$

ILZ033-039-045-046-055>057-062-063-021000-
EAST-CENTRAL ILLINOIS

CITY           SKY/WX    TMP DP  RH WIND       PRES   REMARKS
CHAMPAIGN      MOCLDY    13   9  84 NW8       30.46F WCI   2
DANVILLE*      MOCLDY    16  10  79 W6        30.43F WCI   7
RANTOUL*       MOCLDY    16  12  84 W7        30.45F WCI   6
MATTOON        MOCLDY    19  13  77 NW10      30.46F WCI   7
PARIS*         MOCLDY    17  14  88 NW5       30.48S WCI  10
$$

ILZ079-100>102-021000-
SOUTHWEST ILLINOIS

CITY           SKY/WX    TMP DP  RH WIND       PRES   REMARKS
ALTON          PTCLDY    13  11  91 CALM      30.51S FOG
BELLEVILLE     MOCLDY    12  11  96 CALM      30.50F
CAHOKIA*       MOCLDY    13  10  88 CALM      30.52F FOG
SPARTA*        PTCLDY    20  19  96 CALM      30.52F FOG
$$

ILZ064>066-069>071-074>076-080>082-084>086-088>090-092>094-021000-
SOUTH-CENTRAL ILLINOIS

CITY           SKY/WX    TMP DP  RH WIND       PRES   REMARKS
CARBONDALE     PTCLDY    26  20  77 N8        30.51S WCI  18
CAIRO*         CLEAR     32  25  74 N9        30.49R WCI  24
EFFINGHAM*     PTCLDY    17  14  87 W5        30.50F WCI  10
MARION         CLEAR     27  23  86 N6        30.51R WCI  20
MT. VERNON     PTCLDY    10   5  79 CALM      30.50F
CENTRALIA*     FOG       13  10  89 CALM      30.50F VSB<1/4
SALEM*         FOG       18  15  89 CALM      30.50F VSB 1/4
METROPOLIS*    CLEAR     29  25  82 N5        30.49R WCI  24
$$

ILZ067-068-072-073-078-083-087-091-021000-
SOUTHEAST ILLINOIS

CITY           SKY/WX    TMP DP  RH WIND       PRES   REMARKS
LAWRENCEVILLE  PTCLDY    17  14  88 CALM      30.50S FOG
FLORA*         PTCLDY    18  17  94 NW5       30.51S WCI  11
FAIRFIELD*     PTCLDY    22  19  87 NW3       30.50S
HARRISBURG*    CLEAR     27  22  84 N9        30.52R WCI  17
ROBINSON*      PTCLDY    13  11  95 CALM      30.50F FOG
CARMI*         PTCLDY    27  24  89 NW6       30.51R WCI  20
$$

ABBREVIATIONS USED IN REMARKS
   TC - TEMPERATURE IN CELSIUS
  WCI - WIND CHILL INDEX
   HX - HEAT INDEX
  VSB - VISIBILITY
$$




USA.gov is the U.S. government's official web portal to all federal, state and local government web resources and services.